Home > Weather > Spa > Past weeks

Flag for Belgium Past Weather in Spa, Belgium — Yesterday and Last 2 Weeks

Now
58 °F

Passing clouds.


Feels Like: 58 °F
Forecast: 57 / 69 °F
Wind: 5 mph from Southwest

Location: Spa / La Sauveniere

Current Time: Jul 29, 2016 at 9:56:53 AM

Latest Report: Jul 29, 2016 at 9:00 AM


Visibility: 3 mi

Pressure: 29.94 "Hg

Humidity: 92%

Dew Point: 56 °F

Location of SpaLocation

Past Weather in Spa — Graph

°F

Spa Temperature Yesterday

Maximum temperature yesterday: 68 °F (at 6:00 PM)
Minimum temperature yesterday: 58 °F (at 7:00 AM)
Average temperature yesterday: 62 °F

High & Low Weather Summary for the Past Weeks

 TemperatureHumidityPressure
High88 °F (Jul 20, 4:00 PM)98% (Jul 24, 4:00 AM)30.34 "Hg (Jul 24, 4:00 AM)
Low47 °F (Jul 15, 4:00 AM)34% (Jul 20, 2:00 PM)29.87 "Hg (Jul 20, 4:00 PM)
Average64 °F77%30.11 "Hg
* Reported Jul 14 8:00 AM — Jul 29 8:00 AM, Spa, Weather by CustomWeather, © 2016

Note: Actual official high and low records may vary slightly from our data, if they occured in-between our weather recording intervals... More about our weather records

Advertising

Spa Weather History for the Previous 24 Hours

Scroll right to see more
 ConditionsComfort  
Time TempWeatherWind HumidityBarometerVisibility
8:00 AM
Fri, Jul 29
58 °FScattered clouds.5 mph92%29.95 "Hg6 mi
7:00 AM57 °FScattered clouds.N/A92%29.95 "Hg10 mi
6:00 AM56 °FLight rain. Scattered clouds.5 mph91%29.95 "Hg10 mi
5:00 AM57 °FPassing clouds.5 mph90%29.96 "Hg14 mi
4:00 AM56 °FPassing clouds.3 mph91%29.97 "Hg15 mi
3:00 AM56 °FClear.1 mph92%29.98 "Hg7 mi
2:00 AM59 °FPassing clouds.3 mph78%29.99 "Hg19 mi
1:00 AM58 °FPassing clouds.2 mph84%29.99 "Hg19 mi
12:00 AM60 °FClear.2 mph82%29.99 "Hg15 mi
11:00 PM
Thu, Jul 28
62 °FClear.3 mph75%29.98 "Hg19 mi
10:00 PM62 °FPassing clouds.3 mph76%29.98 "Hg19 mi
9:00 PM65 °FPassing clouds.2 mph72%29.96 "Hg22 mi
8:00 PM66 °FSunny.3 mph70%29.95 "Hg22 mi
7:00 PM67 °FSunny.2 mph67%29.95 "Hg19 mi
6:00 PM68 °FSunny.5 mph63%29.95 "Hg22 mi
5:00 PM67 °FSunny.5 mph65%29.96 "Hg18 mi
4:00 PM64 °FPassing clouds.3 mph80%29.98 "Hg19 mi
3:00 PM63 °FScattered clouds.3 mph87%30.00 "Hg19 mi
2:00 PM62 °FPartly sunny.3 mph88%30.01 "Hg17 mi
1:00 PM60 °FDrizzle. Partly sunny.3 mph93%30.01 "Hg4 mi
12:00 PM61 °FRain. Partly sunny.1 mph93%30.01 "Hg2 mi
11:00 AM60 °FLight rain. Sunny.2 mph93%30.02 "Hg4 mi
10:00 AM58 °FLight rain. Partly sunny.3 mph93%30.02 "Hg3 mi
9:00 AM58 °FRain. Partly sunny.3 mph92%30.02 "Hg2 mi
Weather by CustomWeather, © 2016

See weather overviewHow to use our weather pages